Home   Weather   Lawrenceville   Past weeks
Flag for USA

Past Weather in Lawrenceville, Georgia, USA — Yesterday and Last 2 Weeks

Now
51 °F

Clear.


Feels Like: 51 °F
Forecast: 69 / 44 °F
Wind: 3 mph from West

Location: Gwinnett County-Briscoe Field Airport

Current Time: Oct 17, 2019 at 11:55:45 pm

Latest Report: Oct 17, 2019 at 10:56 pm


Visibility: 10 mi

Pressure: 29.98 "Hg

Humidity: 63%

Dew Point: 39 °F

Location of LawrencevilleLocation

Past Weather in Lawrenceville — Graph

°F

Lawrenceville Temperature Yesterday

Maximum temperature yesterday: 72 °F (at 12:56 pm)
Minimum temperature yesterday: 53 °F (at 11:56 pm)
Average temperature yesterday: 62 °F

High & Low Weather Summary for the Past Weeks

 TemperatureHumidityPressure
High97 °F (Oct 3, 12:56 pm)100% (Oct 3, 4:56 am)30.29 "Hg (Oct 3, 4:56 am)
Low44 °F (Oct 17, 6:56 am)26% (Oct 14, 1:56 pm)29.81 "Hg (Oct 16, 10:32 am)
Average67 °F79%30.08 "Hg
* Reported Oct 2 9:56 pm — Oct 17 9:56 pm, Lawrenceville. Weather by CustomWeather, © 2019

Note: Actual official high and low records may vary slightly from our data, if they occured in-between our weather recording intervals... More about our weather records

Advertising

Lawrenceville Weather History for the Previous 24 Hours

Scroll right to see more
 ConditionsComfort  
Time TempWeatherWind HumidityBarometerVisibility
9:56 pm
Thu, Oct 17
53 °FClear.3 mph59%29.97 "Hg10 mi
8:56 pm56 °FClear.3 mph51%29.96 "Hg10 mi
7:56 pm57 °FClear.5 mph51%29.97 "Hg10 mi
6:56 pm60 °FSunny.7 mph46%29.97 "Hg10 mi
5:56 pm64 °FSunny.6 mph40%29.95 "Hg10 mi
4:56 pm66 °FSunny.6 mph37%29.94 "Hg10 mi
3:56 pm66 °FSunny.8 mph36%29.95 "Hg10 mi
2:56 pm64 °FSunny.6 mph38%29.96 "Hg10 mi
1:56 pm64 °FSunny.6 mph40%29.98 "Hg10 mi
12:56 pm60 °FSunny.6 mph42%30.00 "Hg10 mi
11:56 am58 °FSunny.8 mph47%30.01 "Hg10 mi
9:56 am51 °FSunny.6 mph69%30.03 "Hg10 mi
8:56 am46 °FSunny.7 mph79%30.01 "Hg10 mi
7:56 am44 °FSunny.8 mph85%29.98 "Hg10 mi
6:56 am44 °FClear.6 mph89%29.98 "Hg10 mi
5:56 am45 °FClear.7 mph86%29.96 "Hg10 mi
4:56 am46 °FClear.7 mph83%29.95 "Hg10 mi
3:56 am46 °FClear.6 mph83%29.95 "Hg10 mi
2:56 am48 °FClear.7 mph80%29.96 "Hg10 mi
1:56 am49 °FClear.5 mph77%29.94 "Hg10 mi
12:56 am51 °FClear.3 mph71%29.96 "Hg10 mi
11:56 pm
Wed, Oct 16
53 °FClear.5 mph66%29.96 "Hg10 mi
Weather by CustomWeather, © 2019

See weather overview